Regional Weather Roundup
Issued by NWS

Home | Current Version | Previous Version | Graphics & Text | Print | Product List | Glossary On
Versions: 1 2 3 4 5 6 7 8 9 10 11 12 13 14 15 16 17 18 19 20 21 22 23 24 25 26 27 28 29 30 31 32 33 34 35 36 37 38 39 40 41 42 43 44 45 46 47 48 49 50
000
ASUS43 KMKX 031511
RWRWI

WISCONSIN REGIONAL WEATHER ROUNDUP
NATIONAL WEATHER SERVICE MILWAUKEE/SULLIVAN WI
1000 AM CDT MON AUG 03 2015

NOTE: "FAIR" INDICATES FEW OR NO CLOUDS BELOW 12,000 FEET WITH NO
SIGNIFICANT WEATHER AND/OR OBSTRUCTIONS TO VISIBILITY.

WIZ001-002-006>008-014>016-023>028-031600-
NORTHWEST WISCONSIN

CITY           SKY/WX    TMP DP  RH WIND       PRES   REMARKS
SUPERIOR ARPT  MOSUNNY   68  54  62 NW16      29.83R
ASHLAND        MOSUNNY   67  53  61 W10G20    29.81R
HAYWARD        MOSUNNY   66  50  56 NW8       29.84S
SIREN          SUNNY     67  50  54 N13G20    29.88R
CUMBERLAND     SUNNY     64  50  59 NW9G17    29.87S
RICE LAKE      MOSUNNY   67  49  51 NW10G16   29.88S
CHETEK         SUNNY     69  51  51 W10G17    29.86S
LADYSMITH      SUNNY     67  51  56 NW10G20   29.86S
EAU CLAIRE     SUNNY     71  48  43 NW14      29.86S
MENOMONIE      SUNNY     72  48  41 W14       29.88S
NEW RICHMOND   SUNNY     70  49  47 NW14G20   29.89S
OSCEOLA        SUNNY     69  49  49 NW13G18   29.91F
$$

WIZ003>005-009-010-017-018-031600-
NORTH CENTRAL WISCONSIN

CITY           SKY/WX    TMP DP  RH WIND       PRES   REMARKS
MANITOWISH WTR CLOUDY    62  51  67 W10       29.80S
ARBOR VITAE    CLOUDY    62  51  66 NW8       29.80S
WOODRUFF       CLOUDY    62  51  66 NW8       29.80S
RHINELANDER    MOSUNNY   66  50  56 NW9G23    29.81F
EAGLE RIVER    MOSUNNY   66  48  51 NW13G18   29.79S
LAND O LAKES   CLOUDY    65  48  52 W9G17     29.79S
PHILLIPS       PTSUNNY   62  51  66 W9        29.82S
TOMAHAWK       CLOUDY    64  50  60 W8        29.83S
MEDFORD        CLOUDY    64  49  58 NW8       29.85R
MERRILL        NOT AVBL
$$

WIZ029-030-035-036-043>047-031600-
CENTRAL WISCONSIN

CITY           SKY/WX    TMP DP  RH WIND       PRES   REMARKS
WAUSAU         SUNNY     69  47  45 NW16      29.82S
MOSINEE        SUNNY     68  46  45 NW17      29.84F
MARSHFIELD     PTSUNNY   69  47  45 NW14      29.85S
STEVENS POINT  PTSUNNY   67  46  47 W13G20    29.84F
WAUPACA        SUNNY     73  47  40 NW16      29.83S
WAUTOMA        SUNNY     73  45  36 NW12G22   29.85S
WISC RAPIDS    SUNNY     71  46  40 NW13G23   29.86S
CAMP DOUGLAS   NOT AVBL
$$

WIZ011>013-019>022-031-037>040-048>050-031600-
NORTHEAST WISCONSIN

CITY           SKY/WX    TMP DP  RH WIND       PRES   REMARKS
ANTIGO         SUNNY     65  50  57 NW13G20   29.82S
SHAWANO        SUNNY     70  54  57 W9        29.80F
OCONTO         MOSUNNY   70  54  57 W7        29.78S
STURGEON BAY   CLOUDY    66  52  59 W6        29.81S
GREEN BAY      SUNNY     70  57  63 W9        29.80S
MANITOWOC      SUNNY     71  52  50 MISG      29.80S
APPLETON       MOSUNNY   68  52  56 W10       29.82S
CLINTONVILLE   SUNNY     68  52  56 W9        29.81S
OSHKOSH        SUNNY     70  53  54 NW10      29.82S
$$

WIZ032>034-041-042-053>061-031600-
SOUTHWEST WISCONSIN

CITY           SKY/WX    TMP DP  RH WIND       PRES   REMARKS
LA CROSSE      SUNNY     73  54  51 NW6       29.88S
SPARTA         SUNNY     73  48  41 W9        29.88S
VIROQUA        SUNNY     71  52  52 NW8       29.91S
BOSCOBEL       SUNNY     76  53  44 W6        29.90R
PRAIRIE DU CHI SUNNY     73  49  41 W6        29.90S
PLATTEVILLE    SUNNY     73  52  47 W8        29.91S
$$

WIZ056-057-062-063-064-067-068-031600-
SOUTH CENTRAL WISCONSIN

CITY           SKY/WX    TMP DP  RH WIND       PRES   REMARKS
REEDSBURG      SUNNY     73  48  40 W9G16     29.87F
BARABOO/DELLS  SUNNY     73  43  34 W8        29.87F
LONE ROCK      SUNNY     74  50  42 NW7       29.89S
MINERAL POINT  SUNNY     72  46  40 W8        29.91S
MADISON        SUNNY     73  50  44 NW12      29.87R
MIDDLETON      SUNNY     74  49  41 NW8       29.88S
WATERTOWN      MOSUNNY   71  52  50 W9G16     29.85F
MONROE         SUNNY     72  46  40 NW8       29.89S
JANESVILLE     SUNNY     75  46  35 NW12      29.87R
$$

WIZ051-052-058>065-066-070>072-031600-
SOUTHEAST WISCONSIN

CITY           SKY/WX    TMP DP  RH WIND       PRES   REMARKS
MILWAUKEE      SUNNY     75  49  39 W9        29.83S
WAUKESHA       SUNNY     72  50  46 W12       29.86S
MILWAUKEE/TIMM SUNNY     73  50  43 W9G17     29.84S
RACINE         SUNNY     74  54  49 NW8       29.85S
BURLINGTON     SUNNY     73  48  40 NW14      29.86R
KENOSHA        SUNNY     73  58  59 W12       29.85S
FOND DU LAC    SUNNY     70  54  56 W10       29.83S
SHEBOYGAN      SUNNY     70  59  68 W9        29.81S
WEST BEND      SUNNY     70  52  52 W12       29.84R
JUNEAU         SUNNY     69  51  53 W12G18    29.86S
$$

LSZ147-162-031600-
LAKE SUPERIOR

STATION/POSITION TIME  TEMP    WIND        PRES    WAVE
                       AIR SEA DIR/SP/G            HT/PER
                 (UTC) (F)     (DEG/KT/KT) (MB)    (FT/S)
W MID LAKE BUOY  1450   57 55  270/ 14/ 17 1007.0R   2/ 4
DEVILS ISLAND    1500   59     260/ 11/ 14 1008.6R
PORT WING        1400   61     270/ 11/ 14 1009.5
SAXON HARBOR     1400   63                 1008.5
$$

LMZ867-665-643>646-031600-
LAKE MICHIGAN

STATION/POSITION TIME  TEMP    WIND        PRES    WAVE
                       AIR SEA DIR/SP/G            HT/PER
                 (UTC) (F)     (DEG/KT/KT) (MB)    (FT/S)
CHAMBERS ISLAND  1400   67     260/  4/  8 1008.1R
S GREEN BAY BUOY 1500   64 67  220/ 10/ 12 1010.1F
N MID LAKE BUOY  1450   64 68  280/ 12/ 14 1007.1R   2/ 6
NORTHPORT PIER   1400   66     310/ 10/ 13 1007.8R
SISTER BAY       1418   69     320/ 12/ 14   N/A
ALGOMA LAKESHORE 1412          330/  7/  9   N/A
KEWAUNEE LAKESHO 1400   66     280/  5/  8 1008.2R
SHEBOYGAN LAKESH 1500   69     270/  9/ 11 1009.5R
PORT WASHINGTON  1440   73     300/  5/ 12 1010.5R
ATWATER BUOY     1500   70 65  300/ 10/ 16 1011.5S
MILWAUKEE LAKESH 1400   70     290/  7/  9   N/A
KENOSHA   LAKESH 1500   72     300/ 12/ 16 1010.2S
$$

TC  - TEMPERATURE IN CELSIUS
VSB - VISIBILITY IN STATUTE MILES
WCI - WIND CHILL INDEX
HX  - HEAT INDEX



USA.gov is the U.S. government's official web portal to all federal, state and local government web resources and services.